Weather observations for the past three days for
Sioux City, Sioux Gateway Airport
Metric (Imperial)
Date Time (cdt) Wind (kph) Vis. (km) Weather Sky Cond. Temperature (ºC) Relative Humidity Wind Chill (°C) Heat Index (°C) Pressure Precipitation (cm)
Air Dwpt 6 hour altimeter (cm) sea level (mb) 1 hr 3 hr 6 hr
Max. Min.
05 13:52 NW 30 G 44 16.09 Mostly Cloudy BKN070 12.2 -3.9 33% 76 1013.6
05 12:52 NW 33 G 44 16.09 Mostly Cloudy and Breezy BKN065 12.8 -3.9 12.8 3.9 31% 76.02 1014.0
05 11:52 N 17 G 39 16.09 Fair CLR 11.7 -3.3 35% 76.07 1014.4
05 10:52 NW 17 16.09 Fair CLR 10 -3.9 38% 8 76.05 1014.2
05 09:52 NW 17 16.09 Fair CLR 8.9 -2.2 46% 7 76.02 1013.9
05 08:52 NW 13 16.09 Fair CLR 8.3 -0.6 54% 6 75.97 1013.3
05 07:52 NW 9 16.09 Fair CLR 6.1 -1.1 60% 4 75.92 1012.6
05 06:52 NW 11 14.48 Fair CLR 3.9 -1.1 7.8 2.8 70% 1 75.9 1012.1
05 05:52 W 7 16.09 Fair CLR 3.3 -2.2 68% 2 75.84 1011.4
05 04:52 NW 7 16.09 Fair CLR 4.4 -1.7 65% 3 75.79 1010.6
05 03:52 NW 15 16.09 Fair CLR 5 -1.1 65% 2 75.74 1009.8
05 02:52 NW 9 16.09 Fair CLR 6.1 -1.1 60% 4 75.72 1009.5
05 01:52 NW 9 16.09 Fair CLR 7.2 -1.1 56% 6 75.72 1009.3
05 00:52 SW 6 14.48 Fair CLR 6.1 -0.6 14.4 6.1 63% 75.72 1009.5
04 23:52 NW 7 16.09 Fair CLR 8.9 -1.7 48% 8 75.69 1009.1
04 22:52 N 13 16.09 Fair CLR 10.6 -1.1 45% 75.69 1009.1
04 21:52 N 17 16.09 Partly Cloudy SCT120 11.7 -2.2 38% 75.67 1008.7
04 20:52 N 30 16.09 Overcast OVC100 12.8 -2.2 36% 75.62 1007.9
04 19:52 N 26 G 48 14.48 Light Rain FEW055 SCT070 OVC095 12.8 -1.1 38% 75.59 1007.9
04 18:52 NW 31 G 48 16.09 A Few Clouds FEW110 14.4 -0.6 22.8 14.4 36% 75.57 1007.5
04 17:52 N 37 G 54 16.09 Partly Cloudy and Breezy SCT110 16.1 0.6 35% 75.49 1006.5
04 15:52 N 41 G 61 16.09 Fair and Breezy CLR 21.1 1.7 28% 75.36 1004.5
04 14:52 NW 37 G 56 16.09 Fair and Breezy CLR 21.7 1.1 26% 75.31 1003.9
04 13:52 N 33 G 48 16.09 Fair and Breezy CLR 22.2 2.8 28% 75.26 1003.2
04 12:52 N 28 16.09 Fair CLR 22.2 3.3 22.2 7.8 29% 75.26 1003.0
04 11:52 N 28 G 46 16.09 Fair CLR 21.1 6.1 38% 75.21 1002.6
04 10:52 NW 31 G 43 16.09 Fair CLR 20 7.8 45% 75.18 1002.0
04 09:52 NW 28 16.09 Fair CLR 20.6 7.2 42% 75.11 1001.1
04 08:52 W 17 16.09 Fair CLR 19.4 5.6 41% 75.11 1000.8
04 07:52 SE 7 16.09 Fair CLR 12.2 5 62% 75.11 1001.2
04 06:52 E 9 16.09 Fair CLR 7.8 2.8 10 7.2 71% 6 75.13 1001.6
04 05:52 E 7 16.09 Partly Cloudy SCT110 7.8 2.8 71% 7 75.16 1001.8
04 04:52 E 6 16.09 Mostly Cloudy BKN100 BKN120 8.9 2.8 66% 75.18 1002.2
04 03:52 E 6 14.48 Fair CLR 7.8 2.2 68% 75.23 1002.8
04 02:52 E 7 16.09 Fair CLR 7.2 1.7 68% 6 75.26 1003.3
04 01:52 E 7 16.09 Fair CLR 8.3 1.7 63% 7 75.29 1003.7
04 00:52 E 6 14.48 Fair CLR 9.4 2.2 22.2 8.3 61% 75.39 1005.0
03 23:52 Calm 16.09 Fair CLR 9.4 2.8 64% 75.44 1005.6
03 22:52 E 6 16.09 Fair CLR 13.3 3.3 51% 75.49 1006.2
03 21:52 S 6 16.09 Fair CLR 13.9 3.9 51% 75.51 1006.7
03 20:52 Calm 16.09 Fair CLR 17.2 2.2 37% 75.54 1006.8
03 19:52 W 7 16.09 Fair CLR 20.6 3.3 32% 75.57 1007.2
03 18:52 NW 9 16.09 Fair CLR 22.2 3.3 23.3 21.1 29% 75.59 1007.7
03 17:52 NW 17 16.09 Fair CLR 22.8 2.8 27% 75.62 1008.1
03 16:52 NW 13 G 31 16.09 Fair CLR 22.8 3.3 28% 75.67 1008.5
03 15:52 N 22 G 33 16.09 Fair CLR 22.8 3.3 28% 75.69 1009.1
03 14:52 N 15 G 31 16.09 Fair CLR 22.2 2.8 28% 75.74 1009.6
03 13:52 NW 22 16.09 Fair CLR 22.2 3.3 29% 75.77 1010.0
03 12:52 N 28 G 41 14.48 A Few Clouds FEW080 21.7 4.4 21.7 7.8 32% 75.84 1010.7
03 11:52 N 24 G 37 16.09 Fair CLR 20.6 3.9 33% 75.87 1011.2
03 10:52 N 24 G 41 16.09 Fair CLR 20 3.9 35% 75.84 1010.9
03 09:52 N 20 16.09 Fair CLR 16.7 4.4 44% 75.84 1011.0
03 08:52 N 20 16.09 Fair CLR 14.4 4.4 51% 75.82 1010.9
03 07:52 NW 19 14.48 Fair CLR 11.1 3.9 61% 75.82 1010.7
03 05:52 W 11 16.09 Fair CLR 8.3 1.7 63% 7 75.69 1009.1
03 04:52 W 7 16.09 Fair CLR 9.4 1.1 56% 9 75.67 1008.7
03 03:52 S 13 16.09 Fair CLR 8.3 0 56% 6 75.67 1008.9
03 02:52 W 9 16.09 Fair CLR 10.6 0 48% 75.72 1009.5
03 01:52 Vrbl 6 16.09 Fair CLR 13.3 -1.7 36% 75.69 1009.1
03 00:52 S 13 16.09 Fair CLR 15 -2.2 20.6 11.1 31% 75.74 1009.4
02 23:52 S 17 G 33 16.09 Fair CLR 14.4 -2.2 32% 75.74 1009.8
02 22:52 SE 7 16.09 Fair CLR 11.7 -1.1 41% 75.82 1010.7
02 21:52 S 19 16.09 Fair CLR 15.6 -2.8 28% 75.84 1011.3
02 20:52 S 15 16.09 Fair CLR 14.4 -2.8 31% 75.87 1011.8
02 19:52 S 15 16.09 Fair CLR 17.2 -2.8 26% 75.92 1012.6
02 18:52 Vrbl 11 16.09 Partly Cloudy SCT120 20.6 -3.3 21.1 17.2 20% 76.02 1013.8
02 17:52 SW 19 G 41 16.09 Fair CLR 21.1 -3.3 19% 76.05 1014.2
02 16:52 W 19 G 31 16.09 Fair CLR 20.6 -2.8 21% 76.12 1015.2
02 15:52 Vrbl 11 16.09 Fair CLR 20 -2.8 21% 76.2 1016.2
02 14:52 Calm 16.09 Fair CLR 19.4 -0.6 26% 76.28 1017.3
Date Time (cdt) Wind (kph) Vis. (km) Weather Sky Cond. Air Dwpt Max. Min. Relative Humidity Wind Chill (°C) Heat Index (°C) altimeter (cm) sea level (mb) 1 hr 3 hr 6 hr
6 hour
Temperature (ºC) Pressure Precipitation (cm)